Buffalo, NY

2:59 AM EST on December 10, 2019 (GMT -0500)
Buffalo Niagara International

Weather History for KBUF - July, 2019

Change the Weather History Date:

Friday, July 26, 2019

  Actual Average Record
Temperature  
Mean Temperature 74 °F 71 °F  
Max Temperature 84 °F 80 °F 92 °F (1960)
Min Temperature 64 °F 63 °F 48 °F (1876)
Degree Days  
Heating Degree Days 0 0  
Month to date heating degree days 2  
Since 1 June heating degree days 66  
Since 1 July heating degree days 2  
Cooling Degree Days 9 7  
Month to date cooling degree days 171  
Year to date cooling degree days 300  
Since 1 June cooling degree days 274  
Growing Degree Days 24 (Base 50)    
Moisture  
Dew Point 57 °F    
Average Humidity 54    
Maximum Humidity 73    
Minimum Humidity 31    
Precipitation  
Precipitation 0.00 in 0.11 in 2.47 in (1878)
Month to date precipitation 2.65  
Year to date precipitation 21.32  
Snow  
Snow 0.00 in 0.00 in 0.00 in ()
Month to date snowfall 0.0  
Since 1 June snowfall 0.0  
Since 1 July snowfall 0.0  
Snow Depth -    
Sea Level Pressure  
Sea Level Pressure 30.24 in    
Wind  
Wind Speed 8 mph (SSW)    
Max Wind Speed 13 mph    
Max Gust Speed 21 mph    
Visibility 10 miles    
Events      
T = Trace of Precipitation, MM = Missing Value Source: NWS Daily Summary

Daily Weather History Graph

Daily Weather History Graph

Search for Another Location

Airport or City:

Astronomy

Jul. 26, 2019 Rise Set
Actual Time 5:59 AM EDT 8:42 PM EDT
Civil Twilight 5:26 AM EDT 9:15 PM EDT
Nautical Twilight 4:45 AM EDT 9:56 PM EDT
Astronomical Twilight 3:57 AM EDT 10:43 PM EDT
Moon 1:14 AM EDT (7/26) 3:24 PM EDT (7/26)
Length of Visible Light 15h 48m
Length of Day
14h 43m
Waning Crescent, 34% of the Moon is Illuminated
Jul 26
Waning Crescent
Jul 31
New
Aug 7
First Quarter
Aug 15
Full
Aug 23
Last Quarter

Hourly Weather History & Observations

Time (EDT) Temp. Heat Index Dew Point Humidity Pressure Visibility Wind Dir Wind Speed Gust Speed Precip Events Conditions
12:54 AM 66.9 °F - 55.9 °F 68% 30.21 in 10.0 mi SSW 6.9 mph - N/A   Partly Cloudy
1:54 AM 66.9 °F - 55.0 °F 66% 30.22 in 10.0 mi SSW 8.1 mph - N/A   Scattered Clouds
2:54 AM 66.9 °F - 55.0 °F 66% 30.22 in 10.0 mi South 8.1 mph - N/A   Partly Cloudy
3:54 AM 66.0 °F - 55.0 °F 68% 30.22 in 10.0 mi SSW 8.1 mph - N/A   Scattered Clouds
4:54 AM 66.0 °F - 55.0 °F 68% 30.23 in 10.0 mi SSW 8.1 mph - N/A   Partly Cloudy
5:54 AM 64.9 °F - 55.0 °F 70% 30.24 in 10.0 mi South 6.9 mph - N/A   Clear
6:54 AM 64.9 °F - 55.9 °F 73% 30.25 in 10.0 mi South 5.8 mph - N/A   Partly Cloudy
7:54 AM 69.1 °F - 57.0 °F 65% 30.27 in 10.0 mi South 5.8 mph - N/A   Partly Cloudy
8:54 AM 73.0 °F - 59.0 °F 61% 30.27 in 10.0 mi SW 8.1 mph - N/A   Partly Cloudy
9:54 AM 75.9 °F - 62.1 °F 62% 30.27 in 10.0 mi WSW 8.1 mph - N/A   Partly Cloudy
10:54 AM 79.0 °F - 63.0 °F 58% 30.27 in 10.0 mi SW 9.2 mph - N/A   Partly Cloudy
11:54 AM 80.1 °F 81.5 °F 63.0 °F 56% 30.27 in 10.0 mi SW 9.2 mph - N/A   Partly Cloudy
12:54 PM 81.0 °F 81.9 °F 62.1 °F 52% 30.27 in 10.0 mi West 8.1 mph - N/A   Partly Cloudy
1:54 PM 82.9 °F 83.2 °F 60.1 °F 46% 30.27 in 10.0 mi SW 9.2 mph 20.7 mph N/A   Partly Cloudy
2:54 PM 82.9 °F 82.6 °F 57.9 °F 42% 30.26 in 10.0 mi WSW 10.4 mph 19.6 mph N/A   Partly Cloudy
3:54 PM 82.0 °F 81.7 °F 57.0 °F 42% 30.25 in 10.0 mi SW 8.1 mph - N/A   Partly Cloudy
4:54 PM 82.9 °F 82.6 °F 57.9 °F 42% 30.24 in 10.0 mi SW 12.7 mph - N/A   Partly Cloudy
5:54 PM 82.9 °F 82.1 °F 55.9 °F 39% 30.23 in 10.0 mi WSW 11.5 mph - N/A   Partly Cloudy
6:54 PM 81.0 °F 80.8 °F 55.9 °F 42% 30.22 in 10.0 mi SSW 10.4 mph - N/A   Partly Cloudy
7:54 PM 79.0 °F - 54.0 °F 42% 30.22 in 10.0 mi SW 8.1 mph - N/A   Partly Cloudy
8:54 PM 75.0 °F - 57.0 °F 53% 30.23 in 10.0 mi SSW 5.8 mph - N/A   Partly Cloudy
9:54 PM 75.0 °F - 55.9 °F 51% 30.24 in 10.0 mi SW 3.5 mph - N/A   Partly Cloudy
10:54 PM 73.9 °F - 57.0 °F 55% 30.23 in 10.0 mi SE 4.6 mph - N/A   Partly Cloudy
11:54 PM 71.1 °F - 57.9 °F 63% 30.23 in 10.0 mi SSE 3.5 mph - N/A   Clear